Weather History for Chatham, MA

Change the Weather History Date:

Tuesday, April 29, 2014

  Actual Average Record
Temperature  
Mean Temperature 44 °F -  
Max Temperature 46 °F 55 °F 68 °F (2011)
Min Temperature 42 °F 41 °F 34 °F (1992)
Degree Days  
Heating Degree Days 22    
Moisture  
Dew Point 36 °F    
Average Humidity 76    
Maximum Humidity 86    
Minimum Humidity 68    
Precipitation  
Precipitation 0.00 in - - ()
Sea Level Pressure  
Sea Level Pressure 30.41 in    
Wind  
Wind Speed 14 mph (ENE)    
Max Wind Speed 20 mph    
Max Gust Speed 30 mph    
Visibility 10 miles    
Events      
Averages and records for this station are not official NWS values.
T = Trace of Precipitation, MM = Missing Value Source: NWS Daily Summary

Daily Weather History Graph

Daily Weather History Graph

Search for Another Location

Airport:

Trip Planner

Search our weather history database for the weather conditions in past years. The results will help you decide how hot, cold, wet, or windy it might be!

Date:

Astronomy

Apr. 29, 2014 Rise Set
Actual Time 5:39 AM EDT 7:35 PM EDT
Civil Twilight 5:09 AM EDT 8:06 PM EDT
Nautical Twilight 4:32 AM EDT 8:42 PM EDT
Astronomical Twilight 3:52 AM EDT 9:22 PM EDT
Moon 5:55 AM EDT (4/29) 8:12 PM EDT (4/29)
Length of Visible Light 14h 56m
Length of Day
13h 56m
New Moon, 0% of the Moon is Illuminated
Apr 29
New Moon
May 6
First Quarter
May 14
Full
May 21
Last Quarter
May 28
New

Hourly Weather History & Observations

Time (EDT) Temp. Windchill Dew Point Humidity Pressure Visibility Wind Dir Wind Speed Gust Speed Precip Events Conditions
12:06 AM 43.0 °F 35.4 °F 37.9 °F 82% 30.19 in 10.0 mi NE 16.1 mph 26.5 mph N/A   Overcast
12:52 AM 43.0 °F 35.7 °F 37.9 °F 82% 30.21 in 10.0 mi NE 15.0 mph 29.9 mph N/A   Overcast
1:52 AM 43.0 °F 36.8 °F 39.0 °F 86% 30.22 in 10.0 mi NE 11.5 mph - N/A   Overcast
2:52 AM 43.0 °F 36.0 °F 37.9 °F 82% 30.22 in 10.0 mi NE 13.8 mph 20.7 mph N/A   Overcast
3:52 AM 43.0 °F 36.4 °F 39.0 °F 86% 30.25 in 10.0 mi NE 12.7 mph 21.9 mph N/A   Overcast
4:37 AM 43.0 °F 37.2 °F 37.9 °F 82% 30.27 in 10.0 mi NE 10.4 mph 19.6 mph N/A   Overcast
4:52 AM 43.0 °F 35.1 °F 37.9 °F 82% 30.28 in 10.0 mi NE 17.3 mph 28.8 mph N/A   Overcast
5:44 AM 42.1 °F 34.5 °F 37.0 °F 82% 30.29 in 10.0 mi NE 15.0 mph 23.0 mph N/A   Overcast
5:52 AM 42.1 °F 34.2 °F 37.0 °F 82% 30.30 in 10.0 mi NE 16.1 mph 23.0 mph N/A   Overcast
6:13 AM 43.0 °F 36.8 °F 37.0 °F 80% 30.33 in 10.0 mi NE 11.5 mph 21.9 mph N/A   Overcast
7:00 AM 43.0 °F 35.7 °F 37.0 °F 80% 30.33 in 10.0 mi NE 15.0 mph 21.9 mph N/A   Overcast
7:11 AM 43.0 °F 35.7 °F 37.0 °F 80% 30.34 in 10.0 mi NE 15.0 mph 24.2 mph N/A   Overcast
7:52 AM 43.0 °F 35.4 °F 37.0 °F 80% 30.35 in 10.0 mi NE 16.1 mph 23.0 mph N/A   Overcast
8:31 AM 43.0 °F 36.0 °F 37.9 °F 82% 30.37 in 9.0 mi NE 13.8 mph 27.6 mph N/A   Overcast
9:52 AM 44.1 °F 36.8 °F 36.0 °F 73% 30.41 in 10.0 mi NE 16.1 mph 26.5 mph N/A   Overcast
11:52 AM 45.0 °F 38.2 °F 36.0 °F 71% 30.45 in 10.0 mi NE 15.0 mph 21.9 mph N/A   Overcast
12:52 PM 45.0 °F 37.4 °F 35.1 °F 68% 30.43 in 10.0 mi ENE 18.4 mph 25.3 mph N/A   Overcast
1:52 PM 45.0 °F 38.2 °F 35.1 °F 68% 30.45 in 10.0 mi NE 15.0 mph 23.0 mph N/A   Overcast
2:52 PM 45.0 °F 38.2 °F 36.0 °F 71% 30.48 in 10.0 mi ENE 15.0 mph 20.7 mph N/A   Overcast
3:14 PM 45.0 °F 37.6 °F 36.0 °F 71% 30.47 in 10.0 mi ENE 17.3 mph 21.9 mph N/A   Overcast
3:33 PM 44.1 °F 37.7 °F 35.1 °F 71% 30.47 in 10.0 mi NE 12.7 mph - N/A   Overcast
3:52 PM 44.1 °F 37.1 °F 35.1 °F 71% 30.48 in 10.0 mi ENE 15.0 mph 20.7 mph N/A   Overcast
4:52 PM 44.1 °F 35.9 °F 35.1 °F 71% 30.48 in 10.0 mi ENE 19.6 mph - N/A   Overcast
6:52 PM 42.1 °F 36.1 °F 35.1 °F 76% 30.51 in 10.0 mi East 10.4 mph - N/A   Overcast
7:12 PM 42.1 °F 35.7 °F 35.1 °F 76% 30.50 in 10.0 mi East 11.5 mph - N/A   Scattered Clouds
7:25 PM 42.1 °F 34.9 °F 34.0 °F 73% 30.50 in 10.0 mi ENE 13.8 mph 21.9 mph N/A   Mostly Cloudy
7:52 PM 42.1 °F 36.1 °F 33.1 °F 70% 30.52 in 10.0 mi ENE 10.4 mph - N/A   Overcast
8:52 PM 42.1 °F 36.1 °F 34.0 °F 73% 30.52 in 10.0 mi East 10.4 mph 20.7 mph N/A   Mostly Cloudy
9:02 PM 42.1 °F 35.2 °F 34.0 °F 73% 30.52 in 10.0 mi East 12.7 mph 19.6 mph N/A   Scattered Clouds
9:36 PM 42.1 °F 34.5 °F 34.0 °F 73% 30.52 in 10.0 mi East 15.0 mph - N/A   Mostly Cloudy
9:52 PM 42.1 °F 35.7 °F 34.0 °F 73% 30.53 in 10.0 mi East 11.5 mph - N/A   Mostly Cloudy
10:29 PM 42.1 °F 34.9 °F 33.1 °F 70% 30.51 in 10.0 mi East 13.8 mph 21.9 mph N/A   Scattered Clouds
10:39 PM 42.1 °F 34.2 °F 33.1 °F 70% 30.51 in 10.0 mi East 16.1 mph 23.0 mph N/A   Mostly Cloudy
10:48 PM 42.8 °F 35.8 °F 33.8 °F 70% 30.51 in 10.0 mi East 13.8 mph - N/A   Scattered Clouds
11:52 PM 42.1 °F 36.1 °F 34.0 °F 73% 30.53 in 10.0 mi East 10.4 mph - N/A   Clear